Custer, SD

5:44 PM MST on February 23, 2018 (GMT -0700)
Custer County

Weather History for KCUT - November, 2010

Change the Weather History Date:

Tuesday, November 9, 2010

  Actual Average Record
Temperature  
Mean Temperature 40 °F 34 °F  
Max Temperature 53 °F 45 °F 69 °F (1978)
Min Temperature 26 °F 24 °F -15 °F (1986)
Degree Days  
Heating Degree Days 25 30  
Month to date heating degree days 170 259  
Since 1 July heating degree days 1125 1438  
Cooling Degree Days 0 0  
Month to date cooling degree days 0 0  
Year to date cooling degree days 179 177  
Moisture  
Dew Point 28 °F    
Average Humidity 65    
Maximum Humidity 92    
Minimum Humidity 38    
Precipitation  
Precipitation 0.05 in 0.02 in 0.24 in (1946)
Month to date precipitation 0.05 0.21  
Year to date precipitation 19.58 18.17  
Sea Level Pressure  
Sea Level Pressure 29.62 in    
Wind  
Wind Speed 4 mph (North)    
Max Wind Speed 12 mph    
Max Gust Speed 15 mph    
Visibility 7 miles    
Events Snow    
T = Trace of Precipitation, MM = Missing Value Source: NWS Daily Summary

Daily Weather History Graph

Daily Weather History Graph

Search for Another Location

Airport or City:

Trip Planner

Search our weather history database for the weather conditions in past years. The results will help you decide how hot, cold, wet, or windy it might be!

Date:

Astronomy

Nov. 09, 2010 Rise Set
Actual Time 6:40 AM MST 4:35 PM MST
Civil Twilight 6:10 AM MST 5:05 PM MST
Nautical Twilight 5:36 AM MST 5:40 PM MST
Astronomical Twilight 5:02 AM MST 6:13 PM MST
Moon 10:27 AM MST (11/9) 7:31 PM MST (11/9)
Length of Visible Light 10h 55m
Length of Day
9h 54m
Waxing Crescent, 15% of the Moon is Illuminated
Nov 9
Waxing Crescent
Nov 13
First Quarter
Nov 21
Full
Nov 28
Last Quarter
Dec 5
New

Hourly Weather History & Observations

Time (MST) Temp. Windchill Dew Point Humidity Pressure Visibility Wind Dir Wind Speed Gust Speed Precip Events Conditions
12:53 AM 48.9 °F - 28.9 °F 46% 29.47 in 10.0 mi ENE 3.5 mph - N/A   Partly Cloudy
1:53 AM 50.0 °F - 28.9 °F 44% 29.47 in 10.0 mi NNE 3.5 mph - N/A   Overcast
2:53 AM 46.9 °F - 26.1 °F 44% 29.48 in 10.0 mi NE 4.6 mph - N/A   Mostly Cloudy
3:53 AM 48.0 °F - 27.0 °F 44% 29.48 in 10.0 mi Calm Calm - N/A   Overcast
4:53 AM 46.9 °F - 28.9 °F 50% 29.49 in 10.0 mi Calm Calm - N/A   Mostly Cloudy
5:53 AM 45.0 °F - 28.9 °F 53% 29.50 in 10.0 mi Calm Calm - N/A   Overcast
6:53 AM 44.1 °F 42.5 °F 28.0 °F 53% 29.55 in 10.0 mi SSW 3.5 mph - N/A   Overcast
8:53 AM 45.0 °F 41.8 °F 30.9 °F 58% 29.51 in 10.0 mi NNE 5.8 mph - N/A   Overcast
9:53 AM 46.0 °F 41.9 °F 32.0 °F 58% 29.53 in 10.0 mi ESE 8.1 mph - N/A   Clear
10:53 AM 45.0 °F 43.5 °F 33.1 °F 63% 29.53 in 10.0 mi Variable 3.5 mph - N/A   Overcast
11:22 AM 44.6 °F - 33.8 °F 66% 29.62 in 10.0 mi Calm Calm - N/A   Overcast
11:53 AM 43.0 °F 41.3 °F 33.1 °F 68% 29.52 in 10.0 mi ENE 3.5 mph - N/A   Overcast
12:53 PM 41.0 °F 39.0 °F 30.0 °F 65% 29.55 in 10.0 mi North 3.5 mph - N/A   Overcast
1:53 PM 37.9 °F 33.5 °F 28.0 °F 68% 29.56 in 10.0 mi North 5.8 mph - N/A   Overcast
2:53 PM 37.9 °F 34.4 °F 28.9 °F 70% 29.57 in 10.0 mi NNE 4.6 mph - N/A   Overcast
3:53 PM 35.1 °F 31.0 °F 26.1 °F 70% 29.61 in 10.0 mi North 4.6 mph - N/A   Overcast
4:53 PM 34.0 °F 31.0 °F 25.0 °F 70% 29.65 in 8.0 mi North 3.5 mph - N/A   Overcast
5:53 PM 28.9 °F 21.9 °F 26.1 °F 89% 29.71 in 7.0 mi North 6.9 mph - 0.00 in   Overcast
6:53 PM 28.9 °F 23.9 °F 25.0 °F 85% 29.73 in 2.5 mi North 4.6 mph - 0.00 in Snow Light Snow
7:03 PM 28.4 °F 23.3 °F 24.8 °F 86% 29.73 in 1.8 mi North 4.6 mph - 0.01 in Snow Light Snow
7:53 PM 28.0 °F 22.8 °F 26.1 °F 92% 29.75 in 1.5 mi WNW 4.6 mph - 0.03 in Snow Light Snow
8:17 PM 28.4 °F 24.6 °F 26.6 °F 93% 29.74 in 1.5 mi Variable 3.5 mph - 0.00 in Snow Light Snow
8:36 PM 28.4 °F 23.3 °F 26.6 °F 93% 29.74 in 2.0 mi West 4.6 mph - 0.01 in Snow Light Snow
8:53 PM 28.0 °F - 26.1 °F 92% 29.75 in 1.8 mi Calm Calm - 0.01 in Snow Light Snow
9:04 PM 28.4 °F - 26.6 °F 93% 29.74 in 2.0 mi Calm Calm - 0.00 in Snow Light Snow
9:13 PM 28.4 °F 24.6 °F 26.6 °F 93% 29.74 in 2.5 mi West 3.5 mph - 0.00 in Snow Light Snow
9:25 PM 28.4 °F 24.6 °F 26.6 °F 93% 29.74 in 4.0 mi Variable 3.5 mph - 0.01 in Snow Light Snow
9:53 PM 27.0 °F 23.0 °F 25.0 °F 92% 29.74 in 8.0 mi West 3.5 mph - 0.01 in Snow Light Snow
10:53 PM 28.0 °F 21.7 °F 23.0 °F 81% 29.74 in 10.0 mi West 5.8 mph - 0.00 in   Overcast
11:53 PM 28.0 °F 22.8 °F 21.9 °F 78% 29.74 in 10.0 mi Variable 4.6 mph - N/A   Overcast